Dewpoint
67 67 69 69 68 68 67 66 65 64 64 63 63 62 61 57 56 57 59 59 61 60 60 60 60 59 59 59 59 59 59 59 58
68 68 69 69 68 67 65 63 62 61 61 61 62 61 59 55 56 57 58 60 60 60 60 60 59 59 59 59 59 58 58 59 59
67 69 69 68 68 66 65 62 61 61 61 61 61 60 57 56 57 58 59 61 61 60 60 59 59 59 59 59 59 58 58 56 58
67 69 68 68 68 67 66 63 61 61 61 62 62 61 59 56 57 56 59 62 61 61 60 60 59 59 59 58 58 58 58 57 58
68 69 68 68 68 67 67 65 62 62 62 62 62 60 59 56 58 57 60 61 61 61 60 60 59 59 58 58 58 58 57 57 57
67 66 68 67 67 67 67 66 64 63 63 62 60 59 55 56 57 58 62 61 61 61 61 60 59 59 58 58 58 58 57 57 56
64 66 67 67 66 66 66 65 64 62 59 59 59 56 56 56 57 59 62 61 61 61 61 60 60 59 58 58 57 57 57 57 57
64 66 65 64 63 61 61 60 58 58 57 58 57 56 56 56 57 61 63 62 61 61 60 60 60 59 59 58 57 57 57 57 57
62 64 64 62 61 59 58 57 57 57 57 56 55 57 57 57 57 60 63 62 62 61 61 60 60 60 59 58 58 57 57 56 56
63 63 63 61 60 59 56 55 56 56 56 56 55 54 56 57 57 57 62 63 63 62 61 61 60 59 59 59 58 57 57 56 56
60 60 60 60 58 56 55 53 53 54 55 55 53 51 52 53 56 57 59 62 64 64 63 62 61 61 60 59 58 58 57 56 56
59 58 58 57 56 55 54 53 54 56 58 58 56 56 55 52 52 53 55 58 61 63 65 64 63 62 62 61 60 59 58 58 57
58 57 56 55 55 54 54 53 56 59 60 59 58 57 57 56 54 53 54 56 56 60 62 64 64 63 63 62 62 61 60 60 58
56 55 54 56 58 59 60 60 60 60 60 58 57 56 55 55 54 54 53 53 56 57 60 60 61 62 63 62 61 60 61 61 60
56 57 58 60 60 60 60 60 61 60 59 56 56 56 57 56 56 55 54 53 55 56 56 58 58 59 61 62 61 60 60 61 61
61 61 61 62 61 61 61 61 61 60 59 57 55 56 57 58 58 58 57 57 57 57 57 58 59 60 61 62 61 60 60 59 60
62 62 62 62 62 62 61 61 60 60 58 55 56 53 55 56 56 57 58 58 58 58 59 60 60 60 58 58 57 57 58 58 57
62 62 62 62 62 62 61 61 60 58 59 58 57 54 52 56 58 55 55 56 57 56 56 57 57 56 55 54 53 53 54 57 57
61 61 61 61 62 61 61 61 61 59 58 60 60 60 59 55 52 56 54 54 54 54 55 55 54 53 53 52 52 53 52 54 56
61 61 61 61 61 61 61 60 59 60 59 59 60 60 59 59 57 54 55 55 56 55 54 53 53 51 51 52 53 54 54 56 55
Wind_Speed
20 19 22 20 20 18 19 17 16 16 16 15 15 14 9 9 14 15 14 16 15 16 16 16 16 17 16 17 16 17 18 18 18
20 19 22 19 19 19 18 17 17 17 17 16 15 12 6 13 14 14 14 15 15 15 15 15 15 16 15 16 16 17 16 17 17
20 21 20 19 19 19 18 18 17 17 17 15 14 11 8 12 13 13 14 13 14 14 14 14 14 14 14 15 15 15 15 16 15
20 22 21 19 19 19 18 18 17 17 16 15 13 10 7 12 11 12 12 11 13 13 13 13 13 13 13 14 13 13 14 15 14
18 21 20 18 17 18 17 18 17 16 15 13 12 11 4 11 10 11 11 11 11 11 12 12 12 12 12 12 11 12 12 12 12
20 19 20 18 17 17 16 17 16 14 13 11 10 6 8 8 8 10 8 10 10 10 10 10 10 11 10 10 10 10 10 11 11
20 20 21 19 16 15 16 16 16 12 10 8 6 6 7 7 7 10 7 9 9 9 9 9 9 9 9 9 8 8 8 9 9
17 14 15 15 14 12 12 13 9 8 7 6 5 5 5 6 6 9 4 7 8 8 8 8 7 7 7 7 7 6 7 7 7
18 14 15 13 13 12 11 9 8 7 6 6 5 4 4 4 4 8 4 4 6 7 7 7 6 5 5 5 5 5 5 5 5
18 17 16 15 13 12 10 9 8 7 6 5 3 3 3 3 3 3 7 4 5 6 6 6 6 5 4 4 4 4 3 3 4
17 16 14 13 12 10 9 8 8 6 5 4 4 4 4 3 3 4 6 8 6 6 7 7 6 6 6 5 5 5 5 4 4
16 15 13 12 10 10 8 8 6 6 4 4 4 4 4 5 5 5 5 7 11 9 10 8 9 10 8 8 8 8 9 9 8
14 13 13 11 10 9 9 8 7 5 4 4 4 4 4 5 6 6 6 7 7 11 12 10 9 11 11 10 11 11 12 11 9
12 11 11 12 10 9 8 7 6 5 3 3 4 4 4 5 5 8 8 8 7 7 9 12 11 9 8 10 10 11 14 15 14
13 10 11 11 10 9 8 7 5 3 3 4 5 6 7 7 7 7 7 8 8 8 8 7 8 8 7 7 8 6 7 12 16
14 11 10 9 9 9 9 7 7 5 5 5 6 6 5 6 5 5 6 7 7 6 7 5 4 3 3 3 2 3 3 3 5
14 12 10 11 9 9 10 9 6 7 8 4 3 3 4 3 3 2 2 8 6 1 2 2 3 1 2 2 3 4 4 4 6
14 12 10 10 8 10 10 10 9 9 4 5 3 3 3 2 3 1 3 0 3 1 1 2 2 2 2 2 2 6 8 6 6
12 11 11 11 9 10 10 11 10 4 5 3 7 5 5 3 5 2 1 2 2 2 3 3 4 3 3 2 1 5 9 12 8
12 11 11 11 10 10 12 13 15 10 7 8 3 4 4 4 5 4 2 3 7 7 7 5 3 2 2 4 6 6 7 12 11
Wind_Direction
144 135 118 117 119 118 117 116 112 109 107 103 99 95 99 99 88 89 79 79 82 82 83 83 81 78 75 74 74 72 71 72 70
139 126 120 125 127 124 121 119 116 113 109 107 103 100 80 96 91 87 85 86 88 87 85 83 81 79 78 78 77 74 74 71 71
139 127 128 129 130 127 123 122 120 116 112 109 104 102 108 96 90 88 87 87 89 89 88 87 84 83 80 78 76 76 75 74 71
144 135 134 133 135 128 125 122 121 117 114 111 107 99 65 95 95 99 97 94 95 94 93 92 90 86 84 82 79 80 77 77 71
152 137 134 128 124 128 126 123 120 119 116 114 112 114 148 98 99 89 93 96 95 95 93 91 91 89 87 86 86 83 82 81 79
154 147 135 126 124 126 130 127 124 119 116 118 128 186 102 100 94 95 98 99 99 97 94 90 88 89 89 87 86 85 84 82 77
162 147 136 127 125 125 127 128 133 163 139 131 164 112 115 104 102 103 116 109 106 104 101 99 97 96 94 93 90 90 90 85 82
153 146 140 142 148 141 141 145 155 140 140 145 137 130 115 116 117 115 128 126 122 119 116 114 111 110 110 108 104 99 93 89 83
154 162 164 162 172 160 166 170 157 153 147 141 136 157 142 139 136 135 162 152 144 142 137 133 128 122 118 117 115 110 107 104 97
168 168 172 173 170 170 170 169 164 164 160 154 155 151 175 174 172 159 174 203 192 174 167 166 158 153 157 151 147 144 135 134 127
170 168 172 170 171 167 169 169 169 168 180 173 170 171 176 202 208 217 185 208 220 220 208 197 191 188 194 192 189 191 185 190 182
171 168 169 168 166 163 167 172 179 173 173 186 190 195 202 207 214 221 230 192 219 230 237 226 220 218 218 209 214 217 217 212 204
172 172 170 168 166 168 172 177 183 190 198 198 204 221 221 236 233 225 223 223 225 209 230 237 236 230 230 228 232 231 233 231 219
180 179 170 167 169 170 169 179 191 190 208 221 229 234 240 244 242 241 230 232 236 236 193 226 235 243 243 244 243 241 236 233 228
185 182 175 175 174 173 173 178 182 198 199 219 241 240 238 229 230 235 231 231 230 236 247 225 218 227 228 231 238 250 235 245 237
189 185 181 182 183 179 176 174 183 200 205 235 238 243 259 256 269 281 273 245 237 240 249 263 252 154 193 213 247 248 247 236 279
191 188 190 191 188 184 184 185 181 216 213 236 252 253 199 185 179 128 320 305 339 280 37 230 241 230 237 99 360 331 292 266 259
188 189 186 186 186 189 196 201 206 217 193 216 254 258 257 316 173 120 74 255 265 314 347 99 121 166 173 164 326 343 317 296 281
181 170 181 176 184 186 189 196 206 195 197 184 234 253 296 282 297 156 135 71 321 288 254 199 179 188 212 188 247 306 305 290 276
170 177 182 174 188 193 187 198 194 198 219 220 208 216 238 270 252 294 265 273 234 237 241 223 223 216 259 278 271 280 299 294 273